Flag for Germany Weather past 2 weeks in Pirmasens, Rhineland-Palatinate, Germany

Now
77 °F

Sunny.


Feels Like: 79 °F
Forecast: 60 / 77 °F
Wind: 7 mph from Northeast

Location: Zweibrucken - Rheinland-Pfalz

Current Time: Jul 22, 2014 at 9:29:49 PM

Latest Report: Jul 22, 2014 at 6:50 PM


Visibility: 10 mi

Pressure: 30.01 "Hg

Humidity: 57%

Dew point: 61 °F

Location of PirmasensLocation

Historic Weather in Pirmasens — Graph

°F

Pirmasens temperature yesterday

Maximum temperature yesterday: 70 °F (at 4:50 PM)
Minimum temperature yesterday: 61 °F (at 7:50 AM)
Average temperature yesterday: 66 °F

Past Weeks' High & Low Weather Summary

 TemperatureHumidityPressure
High90 °F (Jul 19, 3:20 PM)100% (Jul 8, 12:50 AM)30.21 "Hg (Jul 8, 12:50 AM)
Low52 °F (Jul 9, 7:50 AM)35% (Jul 18, 6:50 PM)29.74 "Hg (Jul 10, 12:50 AM)
Average68 °F76%29.97 "Hg
* Reported Jul 7 6:20 PM — Jul 22 6:50 PM, Pirmasens, Weather by CustomWeather, © 2014

Note: Actual official high and low records may vary slightly from our data, if they occured in-between our weather recording intervals... More about our weather records

Advertising

Pirmasens weather history for previous 24 hours

 ConditionsComfort  
Time TempWeatherWind HumidityBarometerVisibility
6:50 PM
Jul 22
77 °FSunny.7 mph57%30.01 "Hg10 mi
6:20 PM77 °FSunny.9 mph57%30.01 "Hg10 mi
5:50 PM77 °FPassing clouds.6 mph61%30.01 "HgN/A
5:20 PM77 °FPassing clouds.9 mph61%30.01 "HgN/A
4:50 PM77 °FSunny.9 mph61%30.01 "Hg10 mi
4:20 PM77 °FSunny.14 mph57%30.01 "Hg10 mi
3:50 PM77 °FPassing clouds.9 mph61%30.01 "HgN/A
3:20 PM75 °FPassing clouds.14 mph69%30.01 "HgN/A
2:50 PM77 °FPassing clouds.13 mph65%30.01 "HgN/A
2:20 PM77 °FPassing clouds.8 mph74%30.01 "HgN/A
1:50 PM75 °FPassing clouds.12 mph69%30.01 "HgN/A
1:20 PM75 °FScattered clouds.12 mph74%29.98 "HgN/A
12:50 PM75 °FBroken clouds.9 mph78%30.01 "HgN/A
12:20 PM73 °FPartly sunny.13 mph78%30.01 "HgN/A
11:50 AM72 °FPartly sunny.10 mph83%29.98 "HgN/A
11:20 AM70 °FPartly sunny.8 mph88%29.98 "Hg5 mi
10:50 AM68 °FPartly sunny.10 mph88%29.98 "HgN/A
10:20 AM68 °FPartly sunny.8 mph88%29.98 "HgN/A
9:50 AM68 °FBroken clouds.9 mph88%29.98 "Hg5 mi
9:20 AM66 °FPartly sunny.8 mph94%29.98 "Hg4 mi
8:50 AM66 °FFog.9 mph100%29.98 "Hg3 mi
8:20 AM66 °FLight rain. Fog.8 mph94%29.95 "Hg3 mi
7:50 AM64 °FDrizzle. Fog.8 mph100%29.95 "Hg3 mi
5:20 AM64 °FPassing clouds.9 mph94%29.95 "HgN/A
2:20 AM64 °FMostly cloudy.10 mph94%29.95 "HgN/A
1:50 AM64 °FPartly cloudy.12 mph94%29.95 "HgN/A
1:20 AM64 °FMostly cloudy.8 mph94%29.98 "HgN/A
12:50 AM64 °FLow clouds.9 mph94%29.95 "HgN/A
12:20 AM64 °FOvercast.8 mph94%29.98 "HgN/A
11:50 PM
Jul 21
64 °FOvercast.8 mph94%29.95 "HgN/A
9:50 PM66 °FPartly sunny.8 mph88%29.95 "HgN/A
9:20 PM66 °FPartly sunny.10 mph83%29.95 "HgN/A
Weather by CustomWeather, © 2014

See weather overviewHow to use our weather pages